EDT,Max TemperatureF,Mean TemperatureF,Min TemperatureF,Max Dew PointF,MeanDew PointF,Min DewpointF,Max Humidity, Mean Humidity, Min Humidity, Max Sea Level PressureIn, Mean Sea Level PressureIn, Min Sea Level PressureIn, Max VisibilityMiles, Mean VisibilityMiles, Min VisibilityMiles, Max Wind SpeedMPH, Mean Wind SpeedMPH, Max Gust SpeedMPH,PrecipitationIn, CloudCover, Events, WindDirDegrees
2012-8-1,77,70,64,72,70,63,100,89,78,29.94,29.91,29.87,10,10,8,12,5,,0.00,3,,202
2012-8-2,80,74,69,73,71,54,100,82,39,29.96,29.91,29.88,10,9,5,18,7,,0.00,1,,218
2012-8-3,84,80,75,75,75,73,94,86,74,30.12,30.06,30.00,10,8,4,17,9,,0.00,2,,223
2012-8-4,82,78,75,75,75,73,100,89,79,30.24,30.23,30.20,10,7,0,14,7,,0.00,4,Fog,209
2012-8-5,82,80,75,77,76,72,94,90,84,30.20,30.12,30.02,10,10,9,21,13,31,0.00,5,,218
2012-8-6,91,82,69,73,66,63,100,65,43,30.02,30.00,29.97,10,10,7,14,6,,0.00,2,,290
2012-8-7,77,72,66,66,63,57,88,70,57,30.04,30.02,30.01,10,10,10,8,1,,0.00,2,,210
2012-8-8,78,71,64,73,70,63,94,81,74,30.03,30.00,29.98,10,9,4,12,3,,0.00,3,,177
2012-8-9,80,74,69,75,73,68,100,88,74,30.00,29.98,29.93,10,7,0,12,4,,0.00,3,Fog,207
2012-8-10,78,76,75,75,74,73,94,92,83,29.93,29.87,29.82,10,8,1,21,10,31,0.00,4,Rain-Thunderstorm,176
2012-8-11,78,76,75,75,74,72,94,90,89,29.94,29.92,29.89,10,7,2,18,8,,0.00,6,,206
2012-8-12,78,74,71,73,73,72,100,89,83,29.95,29.94,29.92,10,10,5,17,8,,0.00,3,,221
2012-8-13,80,74,68,68,66,63,94,71,54,30.01,29.98,29.95,10,10,10,14,5,,0.00,0,,276
2012-8-14,82,74,66,72,68,63,94,79,54,29.98,29.95,29.93,10,10,8,14,4,,0.00,2,,202
2012-8-15,75,72,68,75,70,66,100,97,88,29.93,29.90,29.86,10,9,1,7,2,,0.00,6,Rain,100
2012-8-16,80,73,66,73,66,63,100,77,58,29.89,29.88,29.87,10,10,8,16,4,,0.00,0,,316
2012-8-17,80,72,64,73,69,63,94,76,61,29.90,29.87,29.83,10,9,5,17,8,,0.00,0,,226
2012-8-18,68,66,60,64,64,59,100,93,88,29.98,29.91,29.88,10,7,2,12,5,,0.00,6,Rain,17
2012-8-19,73,65,57,61,59,55,94,75,57,29.99,29.97,29.95,10,10,10,5,1,,0.00,4,,-1
2012-8-20,73,66,60,63,60,57,94,75,57,29.94,29.92,29.89,10,10,10,7,2,,0.00,3,,135
2012-8-21,78,72,64,64,63,57,94,74,47,30.12,30.05,30.00,10,10,10,6,2,,0.00,1,,330
2012-8-22,78,69,60,66,61,43,100,70,29,30.19,30.16,30.14,10,10,10,6,1,,0.00,0,,140
2012-8-23,77,68,60,70,66,59,94,79,65,30.19,30.17,30.15,10,10,10,12,2,,0.00,0,,222
2012-8-24,80,71,62,72,67,61,94,78,61,30.21,30.19,30.16,10,9,8,7,2,,0.00,0,,195
2012-8-25,77,73,68,70,64,61,88,73,57,30.32,30.31,30.29,10,10,8,12,9,,0.00,1,,99
2012-8-26,75,68,60,66,63,57,94,79,69,30.36,30.31,30.26,10,10,10,12,5,,0.00,0,,117
2012-8-27,77,76,75,73,72,70,94,88,78,30.22,30.11,30.00,10,10,8,15,7,,0.00,4,Rain,199
2012-8-28,82,78,73,73,69,63,94,77,62,29.89,29.84,29.80,10,9,5,18,13,29,0.00,3,Rain,267
2012-8-29,73,66,55,55,52,48,94,60,41,30.03,29.99,29.96,10,10,10,12,4,,0.00,0,,334
2012-8-30,77,70,64,64,58,52,83,64,44,30.10,30.07,30.05,10,10,10,12,3,,0.00,0,,250
2012-8-31,82,76,69,72,68,61,78,70,51,30.05,29.98,29.91,10,9,6,21,13,,0.00,0,,246